CST,Max TemperatureF,Mean TemperatureF,Min TemperatureF,Max Dew PointF,MeanDew PointF,Min DewpointF,Max Humidity, Mean Humidity, Min Humidity, Max Sea Level PressureIn, Mean Sea Level PressureIn, Min Sea Level PressureIn, Max VisibilityMiles, Mean VisibilityMiles, Min VisibilityMiles, Max Wind SpeedMPH, Mean Wind SpeedMPH, Max Gust SpeedMPH,PrecipitationIn, CloudCover, Events, WindDirDegrees
2012-12-1,82,69,53,59,51,39,94,70,23,29.93,29.88,29.80,10,10,10,23,12,30,0.00,2,,198
2012-12-2,75,56,38,57,46,35,88,66,49,30.04,29.95,29.88,10,10,10,21,7,18,0.00,0,,186
2012-12-3,81,69,56,61,54,30,94,70,27,29.98,29.85,29.75,10,10,10,22,15,32,0.00,2,,207
2012-12-4,66,54,41,41,30,20,59,42,17,30.30,30.20,30.00,10,10,10,21,15,30,0.00,0,,15
2012-12-5,62,50,37,39,29,24,82,48,25,30.31,30.17,29.99,10,10,10,10,6,,0.00,0,,110
2012-12-6,72,58,43,48,42,34,100,74,26,29.97,29.84,29.73,10,8,2,21,10,28,0.00,3,,177
2012-12-7,54,48,40,43,40,38,96,81,62,29.93,29.86,29.80,10,10,7,14,9,18,0.00,1,,16
2012-12-8,51,44,37,45,43,36,100,91,75,29.94,29.89,29.76,10,7,2,13,6,,0.00,6,,45
2012-12-9,52,42,31,46,36,8,100,81,30,30.13,29.82,29.70,10,6,0,28,9,40,0.00,3,Fog,343
2012-12-10,40,30,21,21,11,6,80,47,28,30.24,30.16,30.09,10,10,4,23,13,33,0.00,2,Snow,352
2012-12-11,47,34,20,19,14,10,69,48,27,30.21,30.15,30.10,10,10,10,8,2,,0.00,0,,183
2012-12-12,56,38,21,21,16,12,67,43,23,30.27,30.18,30.09,10,10,10,18,5,25,0.00,0,,164
2012-12-13,62,46,31,35,26,21,67,50,27,30.21,30.15,30.08,10,10,10,18,10,22,0.00,0,,167
2012-12-14,57,52,48,54,44,30,100,74,42,30.09,29.87,29.68,10,7,1,31,15,44,0.31,8,Rain,175
2012-12-15,57,50,43,43,36,34,73,57,42,29.83,29.77,29.72,10,10,10,17,11,26,0.00,0,,230
2012-12-16,65,52,38,38,33,25,89,58,22,29.78,29.74,29.65,10,10,10,16,7,24,0.00,1,,278
2012-12-17,56,45,34,37,35,32,91,73,43,29.91,29.83,29.78,10,10,10,12,6,,0.00,0,,239
2012-12-18,63,48,32,33,30,26,82,59,28,29.81,29.77,29.72,10,10,10,7,3,,0.00,0,,293
2012-12-19,66,52,37,57,38,23,85,59,30,29.86,29.62,29.50,10,10,8,32,9,45,0.02,2,,231
2012-12-20,49,40,28,23,11,1,57,35,14,30.41,30.28,29.93,10,10,10,32,21,47,0.27,0,,319
2012-12-21,63,42,21,13,10,3,65,33,10,30.40,30.31,30.23,10,10,10,14,4,20,0.00,0,,214
2012-12-22,59,44,29,34,18,8,65,36,15,30.22,30.09,29.93,10,10,10,21,7,28,0.00,1,,191
2012-12-23,55,44,32,38,29,24,91,62,33,29.98,29.90,29.84,10,10,5,15,6,,0.00,0,,358
2012-12-24,41,34,27,24,22,20,73,58,44,30.05,29.94,29.86,10,10,10,18,10,21,0.00,2,Rain,29
2012-12-25,35,27,19,30,19,10,93,82,60,30.26,30.00,29.79,10,4,0,37,24,46,0.14,7,Fog-Rain-Snow,8
2012-12-26,26,20,14,16,11,6,84,69,56,30.34,30.23,30.11,10,10,10,23,13,28,0.00,3,,357
2012-12-27,34,26,19,29,22,14,94,84,72,30.10,29.97,29.86,10,9,6,18,6,,0.00,3,,135
2012-12-28,30,28,21,29,24,15,100,83,56,30.24,30.03,29.94,10,7,2,20,11,25,0.00,6,Snow,1
2012-12-29,44,31,18,26,20,14,83,67,45,30.44,30.37,30.25,10,10,10,8,3,,0.00,0,,352
2012-12-30,39,32,24,30,24,20,84,70,55,30.40,30.29,30.16,10,10,10,15,5,,0.00,2,,162
2012-12-31,42,38,33,43,36,30,100,95,80,30.14,30.04,29.96,10,7,2,15,9,18,0.20,7,Rain,157